ATLAS 5 CENTAUR DEB, 44675

Orbit data source: Space-Track

ATLAS 5 CENTAUR DEB, 44675 is space debris in HEO originally from a launch on Wed, 17 Oct 2018 UTC launched from the Air Force Eastern Test Range (AFETR). Debris objects in space refer to the collection of defunct objects orbiting the Earth. Examples of debris include non-operational satellites, rocket bodies, and fragments generated from explosions, collisions, or faulty payload assembly.

Loading next visibility...
Identifier
44675, 2018-079AM
Orbit
HEO
Last TLE update
1 day ago
Origin
Flag of USUnited Launch Alliance/Lockheed Martin (US)
Manufacturer
ULA Decatur
Mission
Spacecraft
Bus & Motor
Unknown
Mass
Unknown
Launch date (UTC)
2018-10-17 (7 years ago)
Launch vehicle
Unknown
Launch site
Air Force Eastern Test Range (AFETR)
Object type
Payload
Rocket body
Debris
Shape & HBR
Unknown
Radar Cross Section
RCS unknown

Expand to show TLE details & history

TLE from 1 day ago
0 ATLAS 5 CENTAUR DEB
1 44675U 18079AM  25185.69676120 -.00000159  00000-0  00000+0 0  9994
2 44675  13.0300  66.7502 4668127 250.1857  54.7405  1.80468217 40683
Epoch: 2025-07-04T16:43Z
TLE epoch observation values (Epoch: 2025-07-04T16:43:20.167Z)
Latitude
0.00003°
Longitude
-107.03844°
Altitude
20,121.6 km
Speed
4.012 km/s
True Right ascension
04h 26m 57s
True Declination
0° 00' 00"
Sunlit
Object was in daylight at epoch
Visualization orbit readout
Latitude
-11.33749°
Longitude
132.56706°
Altitude
8,882.689 km
Speed
6.185 km/s
Apparent Right ascension
19h 38m 38s
Apparent Declination
-20° 53' 36"
Sunlit
Object is in full shadow
Visualization observer readout
Local Sidereal Time
05:05:43
Azimuth
288.852° WNW
Elevation
-52.347°
Doppler factor
1
Orbital elements
Apogee altitude
35,424.891 km
Perigee altitude
8,817.289 km
Semi-major axis
28,499.227 km
Eccentricity
0.46681
Inclination
13.03°
RAAN
66.7502°
Arg. of periapsis
250.1857°
True anomaly
Unknown
Mean anomaly
54.7405°
Eccentric anomaly
Unknown
Mean motion
0.45112 °/min
Orbital period
798.01 mins
BSTAR
0
Loading maneuver chart data...
Loading SW <> Apogee altitude chart data...

ATLAS 5 CENTAUR DEB Visibility forecast

Observer location: undefined°, undefined°

Span
Click to sort rows by Start time (UTC) header in descending order
Start Az.
Max El. time (UTC)
Max El. Az.
Max El.
End time (UTC)
End Az.
696 mins2025-07-05 18:47:23.807Z239.324° WSW2025-07-05 22:16:23.807Z237.096° WSW32.277°2025-07-06 06:23:23.807Z150.451° SSE
|